ASTEX 1

Satellite information

Favourite Embed

Satellite Type and Status

PAYLOADIN ORBIT

Key statistics

Satellite ASTEX 1 at a glance.

Uptime

19622

Days in orbit

Revolutions

≈ 14.5

Per day

Orbit

SSO

Sun Synchronous Orbit

Inclination

92.7

Latest

Satellite identification and parameters

Extended collection of information and parameters for ASTEX 1.

Object identification

Identified? True

Debris? False

Object name: ASTEX 1

International designator: 1971-089A

Object number (NORAD): 5560

Object ID (CCSDS): 5560

Country: UNITED STATES OF AMERICA (US)

Current information (Y/N): Y

RCS size: LARGE

Orbital parameters

Period: 99.282 minutes

Inclination: 92.7218 deg

SMA: 7102.42 km

Apoapsis: 735.039 km

Periapsis: 713.53 km

RAAN: 72.1616 deg

Eccentricy: 0.0015142

Argument of periapsis: 187.1736 deg

Mean anomaly: 172.9256 deg

Mean motion: 14.50418293 rev/day

Mean motion (dot): 0.00000324 rev/day2

B* drag term: 0.000083065 1/REarth

Two-line elements (TLE)

Creation date: July 6, 2025, 6:05 p.m.

Reference frame: TEME

Reference center: EARTH

Epoch: July 6, 2025, 2:57 p.m. UTC

TLE line 0: 0 ASTEX 1

TLE line 1: 1 05560U 71089A 25187.62329888 .00000324 00000-0 83065-4 0 9995

TLE line 2: 2 05560 92.7218 72.1616 0015142 187.1736 172.9256 14.50418293826630

Live tracking on map

Real-time ground track for satellite ASTEX 1.

In-orbit conjunctions

A list of the most updated potential collisions computed for object ASTEX 1.

Target Orbit TCA Probability of collision Miss distance Type
DMSP 5D-2 F13 DEB SSO 2025-02-08 15:26:20 0.0001164094 84.0 (m) DEBRIS
DELTA 2 R/B LEO 2025-01-17 19:38:28 0.000821425 549.0 (m) ROCKET BODY
COSMOS 249 DEB LEO 2024-08-06 21:51:56 0.0001503319 126.0 (m) DEBRIS

Associated space launch

USAF satellite designed to test advanced development payloads

ASTEX 1 was lifted into orbit during the mission ‘Thorad SLV-2G Agena D | ASTEX’, on board a Thorad SLV-2G Agena D space rocket.

The launch took place on Oct. 17, 1971, 1:36 p.m. from Space Launch Complex 1W.

For more information about the launch, click the button.

Launch to space Thorad SLV-2G Agena D | ASTEX
Thorad SLV-2G Agena D | ASTEX

Agency: N/A

Status: Launch Successful

Launch date: Oct. 17, 1971, 1:36 p.m. UTC

Rocket: Thorad SLV-2G Agena D

Launch pad: Space Launch Complex 1W

Location: Vandenberg SFB, CA, USA

...

Latest news about this satellite

There are no fresh news available about this satellite. Check back as we update our databases every day.


Newsletter sign-up

Weekly statistics, charts and insights to help you stay on top of the space industry.